| time (UTC) | temp F | wind direction | speed MPH | gust MPH | rain 1hr in | rain 24hr in | rain mn in | humidity % | barometer mb |
| 20260504081552 | 50 | 334 | 6.0 | 14.0 | 0.00 | 0.00 | 0.00 | 65 | 998.3 |
| 20260504070140 | 55 | 242 | 18.0 | 23.0 | 0.00 | 0.00 | 0.00 | 60 | 995.7 |
| 20260504050020 | 57 | 240 | 18.0 | 25.0 | 0.00 | 0.00 | 0.00 | 51 | 997.6 |
| 20260504044521 | 57 | 261 | 20.0 | 25.0 | 0.00 | 0.00 | 0.00 | 49 | 997.7 |
| 20260504043022 | 58 | 244 | 20.0 | 26.0 | 0.00 | 0.00 | 0.00 | 48 | 997.9 |
| 20260504041511 | 58 | 234 | 20.0 | 27.0 | 0.00 | 0.00 | 0.00 | 48 | 998.1 |
| 20260504040010 | 58 | 239 | 20.0 | 26.0 | 0.00 | 0.00 | 0.00 | 47 | 998.2 |
| 20260504034507 | 58 | 236 | 15.0 | 21.0 | 0.00 | 0.00 | 0.00 | 48 | 998.6 |
| 20260504033007 | 56 | 248 | 12.0 | 17.0 | 0.00 | 0.00 | 0.00 | 52 | 998.9 |
| 20260504031503 | 53 | 264 | 2.0 | 7.0 | 0.00 | 0.00 | 0.00 | 59 | 999.1 |
| 20260504030122 | 53 | 149 | 2.0 | 4.0 | 0.00 | 0.00 | 0.00 | 58 | 999.4 |
| 20260504024602 | 54 | 174 | 2.0 | 6.0 | 0.00 | 0.00 | 0.00 | 56 | 999.6 |
| 20260504023100 | 54 | 241 | 2.0 | 5.0 | 0.00 | 0.00 | 0.00 | 56 | 999.6 |
| 20260504021558 | 55 | 198 | 2.0 | 4.0 | 0.00 | 0.00 | 0.00 | 53 | 999.7 |
| 20260504020106 | 57 | 194 | 2.0 | 4.0 | 0.00 | 0.00 | 0.00 | 50 | 999.9 |
| 20260504014558 | 60 | 138 | 1.0 | 6.0 | 0.00 | 0.00 | 0.00 | 45 | 1000.1 |
| 20260504013054 | 62 | 246 | 4.0 | 10.0 | 0.00 | 0.00 | 0.00 | 40 | 1000.4 |
| 20260504011548 | 64 | 222 | 8.0 | 13.0 | 0.00 | 0.00 | 0.00 | 38 | 1000.7 |
| 20260504010044 | 66 | 247 | 10.0 | 16.0 | 0.00 | 0.00 | 0.00 | 35 | 1001.1 |
| 20260504004542 | 67 | 239 | 11.0 | 16.0 | 0.00 | 0.00 | 0.00 | 32 | 1001.4 |
| 20260504003039 | 68 | 238 | 13.0 | 18.0 | 0.00 | 0.00 | 0.00 | 32 | 1001.8 |
| 20260504001543 | 69 | 259 | 13.0 | 23.0 | 0.00 | 0.00 | 0.00 | 28 | 1002.0 |
| 20260504000033 | 70 | 274 | 15.0 | 23.0 | 0.00 | 0.00 | 0.00 | 26 | 1002.5 |
| 20260503234532 | 70 | 276 | 18.0 | 24.0 | 0.00 | 0.00 | 0.00 | 25 | 1002.7 |
| 20260503233036 | 71 | 266 | 16.0 | 24.0 | 0.00 | 0.00 | 0.00 | 24 | 1002.8 |
| 20260503231529 | 71 | 259 | 16.0 | 23.0 | 0.00 | 0.00 | 0.00 | 26 | 1002.9 |
| 20260503230027 | 71 | 246 | 15.0 | 26.0 | 0.00 | 0.00 | 0.00 | 23 | 1003.2 |
| 20260503224525 | 71 | 271 | 21.0 | 26.0 | 0.00 | 0.00 | 0.00 | 24 | 1003.4 |
| 20260503223023 | 70 | 270 | 20.0 | 28.0 | 0.00 | 0.00 | 0.00 | 24 | 1003.5 |
| 20260503221521 | 70 | 265 | 23.0 | 30.0 | 0.00 | 0.00 | 0.00 | 25 | 1003.8 |
| 20260503220019 | 70 | 255 | 20.0 | 30.0 | 0.00 | 0.00 | 0.00 | 24 | 1004.1 |
| 20260503214516 | 70 | 240 | 18.0 | 25.0 | 0.00 | 0.00 | 0.00 | 24 | 1004.3 |
| 20260503213015 | 70 | 269 | 13.0 | 21.0 | 0.00 | 0.00 | 0.00 | 26 | 1004.7 |
| 20260503211513 | 69 | 257 | 13.0 | 30.0 | 0.00 | 0.00 | 0.00 | 24 | 1004.9 |
| 20260503210015 | 70 | 249 | 12.0 | 17.0 | 0.00 | 0.00 | 0.00 | 26 | 1005.3 |
| 20260503204506 | 69 | 252 | 13.0 | 18.0 | 0.00 | 0.00 | 0.00 | 27 | 1005.6 |
| 20260503203003 | 69 | 255 | 15.0 | 24.0 | 0.00 | 0.00 | 0.00 | 28 | 1005.8 |
| 20260503201502 | 70 | 278 | 6.0 | 20.0 | 0.00 | 0.00 | 0.00 | 29 | 1006.1 |
| 20260503200059 | 68 | 271 | 9.0 | 23.0 | 0.00 | 0.00 | 0.00 | 27 | 1006.4 |
| 20260503194554 | 68 | 288 | 16.0 | 24.0 | 0.00 | 0.00 | 0.00 | 29 | 1006.8 |
| 20260503193107 | 67 | 248 | 8.0 | 16.0 | 0.00 | 0.00 | 0.00 | 29 | 1006.9 |
| 20260503191553 | 67 | 294 | 12.0 | 16.0 | 0.00 | 0.00 | 0.00 | 28 | 1007.3 |
| 20260503184547 | 67 | 259 | 8.0 | 17.0 | 0.00 | 0.00 | 0.00 | 29 | 1007.9 |
| 20260503183057 | 68 | 48 | 3.0 | 10.0 | 0.00 | 0.00 | 0.00 | 33 | 1007.9 |
| 20260503181543 | 67 | 341 | 5.0 | 13.0 | 0.00 | 0.00 | 0.00 | 32 | 1008.5 |
| 20260503180052 | 66 | 284 | 3.0 | 11.0 | 0.00 | 0.00 | 0.00 | 33 | 1008.6 |
| 20260503174541 | 66 | 322 | 6.0 | 14.0 | 0.00 | 0.00 | 0.00 | 34 | 1009.0 |
| 20260503173058 | 65 | 271 | 3.0 | 11.0 | 0.00 | 0.00 | 0.00 | 34 | 1009.2 |
| 20260503171543 | 66 | 304 | 3.0 | 11.0 | 0.00 | 0.00 | 0.00 | 34 | 1009.4 |
| 20260503140113 | 51 | 300 | 1.0 | 8.0 | 0.00 | 0.00 | 0.00 | 67 | 1010.6 |